| time (UTC) | temp C | wind direction | speed KPH | gust KPH | rain 1hr cm | rain 24hr cm | rain mn cm | humidity % | barometer mb |
| 20260903074509 | 9 | 223 | 6.4 | 11.3 | 0.00 | 0.00 | 0.00 | 74 | 1002.1 |
| 20260903073009 | 10 | 234 | 4.8 | 11.3 | 0.00 | 0.00 | 0.00 | 73 | 1002.0 |
| 20260903071506 | 10 | 213 | 9.7 | 14.5 | 0.00 | 0.00 | 0.00 | 72 | 1002.0 |
| 20260903070004 | 10 | 274 | 4.8 | 14.5 | 0.00 | 0.00 | 0.00 | 74 | 1002.0 |
| 20260903064501 | 9 | 306 | 4.8 | 11.3 | 0.00 | 0.00 | 0.00 | 73 | 1001.9 |
| 20260903063110 | 10 | 228 | 3.2 | 9.7 | 0.00 | 0.00 | 0.00 | 70 | 1001.6 |
| 20260903061558 | 11 | 219 | 8.0 | 17.7 | 0.00 | 0.00 | 0.00 | 69 | 1001.3 |
| 20260903060050 | 11 | 248 | 11.3 | 17.7 | 0.00 | 0.00 | 0.00 | 71 | 1001.5 |
| 20260903054549 | 11 | 224 | 9.7 | 19.3 | 0.00 | 0.00 | 0.00 | 73 | 1001.7 |
| 20260903053107 | 10 | 219 | 9.7 | 16.1 | 0.00 | 0.00 | 0.00 | 74 | 1002.1 |
| 20260903051546 | 10 | 210 | 8.0 | 11.3 | 0.00 | 0.00 | 0.00 | 74 | 1002.2 |
| 20260903050057 | 11 | 223 | 4.8 | 11.3 | 0.00 | 0.00 | 0.00 | 74 | 1002.1 |
| 20260903044556 | 11 | 218 | 8.0 | 14.5 | 0.00 | 0.00 | 0.00 | 75 | 1002.2 |
| 20260903043049 | 11 | 242 | 9.7 | 14.5 | 0.00 | 0.00 | 0.00 | 74 | 1002.1 |
| 20260903041549 | 11 | 246 | 9.7 | 16.1 | 0.00 | 0.00 | 0.00 | 74 | 1001.9 |
| 20260903040040 | 11 | 226 | 6.4 | 9.7 | 0.00 | 0.00 | 0.00 | 73 | 1002.0 |
| 20260903034541 | 12 | 216 | 8.0 | 12.9 | 0.00 | 0.00 | 0.00 | 72 | 1001.9 |
| 20260903033038 | 13 | 253 | 4.8 | 11.3 | 0.00 | 0.00 | 0.00 | 70 | 1001.8 |
| 20260903031538 | 13 | 288 | 3.2 | 9.7 | 0.00 | 0.00 | 0.00 | 70 | 1001.4 |
| 20260903030038 | 14 | 275 | 1.6 | 8.0 | 0.00 | 0.00 | 0.00 | 66 | 1001.7 |
| 20260903024537 | 15 | 221 | 3.2 | 16.1 | 0.00 | 0.00 | 0.00 | 63 | 1001.5 |
| 20260903023037 | 15 | 190 | 9.7 | 24.1 | 0.00 | 0.00 | 0.00 | 62 | 1001.2 |
| 20260903021541 | 15 | 199 | 12.9 | 24.1 | 0.00 | 0.00 | 0.00 | 60 | 1000.8 |
| 20260903020036 | 16 | 186 | 12.9 | 22.5 | 0.00 | 0.00 | 0.00 | 60 | 1001.0 |
| 20260903014535 | 16 | 190 | 6.4 | 11.3 | 0.00 | 0.00 | 0.00 | 60 | 1000.8 |
| 20260903013035 | 17 | 223 | 4.8 | 9.7 | 0.00 | 0.00 | 0.00 | 56 | 1000.8 |
| 20260903011536 | 17 | 224 | 1.6 | 14.5 | 0.00 | 0.00 | 0.00 | 58 | 1001.4 |
| 20260903010034 | 16 | 167 | 4.8 | 11.3 | 0.00 | 0.00 | 0.00 | 62 | 1001.6 |
| 20260903004534 | 17 | 223 | 4.8 | 9.7 | 0.00 | 0.00 | 0.00 | 59 | 1001.1 |
| 20260903003033 | 16 | 289 | 8.0 | 24.1 | 0.00 | 0.00 | 0.00 | 59 | 1000.5 |
| 20260903001532 | 16 | 279 | 16.1 | 27.4 | 0.00 | 0.00 | 0.00 | 61 | 1000.6 |
| 20260903000035 | 16 | 300 | 12.9 | 43.5 | 0.00 | 0.00 | 0.00 | 64 | 1001.2 |
| 20260902234532 | 15 | 277 | 17.7 | 37.0 | 0.00 | 0.00 | 0.00 | 66 | 1001.2 |
| 20260902233031 | 15 | 240 | 19.3 | 38.6 | 0.00 | 0.00 | 0.00 | 66 | 1001.5 |
| 20260902231533 | 16 | 220 | 32.2 | 72.4 | 0.00 | 0.00 | 0.00 | 63 | 1001.0 |
| 20260902230030 | 22 | 207 | 33.8 | 57.9 | 0.00 | 0.00 | 0.00 | 39 | 999.6 |
| 20260902224529 | 27 | 140 | 12.9 | 22.5 | 0.00 | 0.00 | 0.00 | 29 | 997.1 |
| 20260902223028 | 27 | 164 | 9.7 | 19.3 | 0.00 | 0.00 | 0.00 | 28 | 997.0 |
| 20260902221533 | 27 | 111 | 8.0 | 17.7 | 0.00 | 0.00 | 0.00 | 28 | 997.0 |
| 20260902220040 | 28 | 143 | 12.9 | 22.5 | 0.00 | 0.00 | 0.00 | 28 | 997.0 |
| 20260902214525 | 28 | 150 | 9.7 | 25.7 | 0.00 | 0.00 | 0.00 | 28 | 997.1 |
| 20260902213021 | 27 | 146 | 8.0 | 17.7 | 0.00 | 0.00 | 0.00 | 29 | 997.4 |
| 20260902211519 | 27 | 162 | 3.2 | 17.7 | 0.00 | 0.00 | 0.00 | 29 | 997.6 |
| 20260902210039 | 27 | 119 | 3.2 | 19.3 | 0.00 | 0.00 | 0.00 | 30 | 997.9 |
| 20260902204517 | 27 | 187 | 8.0 | 20.9 | 0.00 | 0.00 | 0.00 | 31 | 998.3 |
| 20260902203012 | 26 | 124 | 9.7 | 24.1 | 0.00 | 0.00 | 0.00 | 31 | 998.6 |
| 20260902201511 | 27 | 152 | 9.7 | 24.1 | 0.00 | 0.00 | 0.00 | 31 | 998.7 |
| 20260902200011 | 26 | 171 | 11.3 | 20.9 | 0.00 | 0.00 | 0.00 | 32 | 998.8 |
| 20260902194509 | 26 | 175 | 14.5 | 29.0 | 0.00 | 0.00 | 0.00 | 33 | 999.0 |
| 20260902193007 | 26 | 202 | 14.5 | 25.7 | 0.00 | 0.00 | 0.00 | 32 | 999.1 |
| 20260902191506 | 27 | 194 | 17.7 | 27.4 | 0.00 | 0.00 | 0.00 | 31 | 999.2 |
| 20260902190004 | 26 | 184 | 11.3 | 25.7 | 0.00 | 0.00 | 0.00 | 32 | 999.5 |
| 20260902184600 | 26 | 227 | 11.3 | 25.7 | 0.00 | 0.00 | 0.00 | 34 | 999.6 |
| 20260902183058 | 26 | 171 | 14.5 | 33.8 | 0.00 | 0.00 | 0.00 | 34 | 999.9 |
| 20260902181605 | 26 | 181 | 14.5 | 29.0 | 0.00 | 0.00 | 0.00 | 33 | 1000.0 |
| 20260902180113 | 26 | 204 | 14.5 | 29.0 | 0.00 | 0.00 | 0.00 | 35 | 1000.2 |
| 20260902174555 | 26 | 191 | 12.9 | 27.4 | 0.00 | 0.00 | 0.00 | 37 | 1000.4 |
| 20260902173048 | 25 | 207 | 14.5 | 25.7 | 0.00 | 0.00 | 0.00 | 37 | 1000.6 |
| 20260902171545 | 24 | 227 | 14.5 | 29.0 | 0.00 | 0.00 | 0.00 | 38 | 1000.8 |
| 20260902170041 | 23 | 184 | 16.1 | 20.9 | 0.00 | 0.00 | 0.00 | 40 | 1000.7 |
| 20260902164538 | 22 | 159 | 6.4 | 17.7 | 0.00 | 0.00 | 0.00 | 43 | 1000.7 |
| 20260902163035 | 22 | 227 | 6.4 | 14.5 | 0.00 | 0.00 | 0.00 | 43 | 1000.7 |
| 20260902161533 | 22 | 223 | 8.0 | 22.5 | 0.00 | 0.00 | 0.00 | 43 | 1000.9 |
| 20260902160034 | 21 | 227 | 9.7 | 16.1 | 0.00 | 0.00 | 0.00 | 45 | 1001.1 |
| 20260902154527 | 21 | 229 | 6.4 | 16.1 | 0.00 | 0.00 | 0.00 | 46 | 1001.2 |
| 20260902153035 | 21 | 241 | 6.4 | 17.7 | 0.00 | 0.00 | 0.00 | 47 | 1001.3 |
| 20260902151524 | 21 | 227 | 6.4 | 14.5 | 0.00 | 0.00 | 0.00 | 47 | 1001.4 |
| 20260902150020 | 20 | 240 | 6.4 | 20.9 | 0.00 | 0.00 | 0.00 | 50 | 1001.6 |
| 20260902144528 | 20 | 199 | 8.0 | 16.1 | 0.00 | 0.00 | 0.00 | 51 | 1001.9 |
| 20260902143013 | 18 | 214 | 9.7 | 17.7 | 0.00 | 0.00 | 0.00 | 55 | 1002.0 |
| 20260902141509 | 16 | 199 | 8.0 | 11.3 | 0.00 | 0.00 | 0.00 | 59 | 1002.1 |
| 20260902140008 | 14 | 245 | 6.4 | 11.3 | 0.00 | 0.00 | 0.00 | 62 | 1002.1 |
| 20260902134512 | 14 | 247 | 4.8 | 11.3 | 0.00 | 0.00 | 0.00 | 62 | 1002.2 |
| 20260902133007 | 13 | 204 | 6.4 | 11.3 | 0.00 | 0.00 | 0.00 | 64 | 1002.3 |
| 20260902131506 | 12 | 123 | 3.2 | 8.0 | 0.00 | 0.00 | 0.00 | 67 | 1002.4 |
| 20260902130005 | 11 | 109 | 3.2 | 6.4 | 0.00 | 0.00 | 0.00 | 68 | 1002.4 |
| 20260902124506 | 12 | 274 | 0.0 | 0.0 | 0.00 | 0.00 | 0.00 | 67 | 1001.9 |
| 20260902123005 | 12 | 274 | 1.6 | 4.8 | 0.00 | 0.00 | 0.00 | 68 | 1001.8 |
| 20260902121501 | 11 | 101 | 3.2 | 9.7 | 0.00 | 0.00 | 0.00 | 69 | 1002.1 |
| 20260902120001 | 11 | 306 | 1.6 | 8.0 | 0.00 | 0.00 | 0.00 | 68 | 1002.0 |
| 20260902114600 | 12 | 296 | 1.6 | 8.0 | 0.00 | 0.00 | 0.00 | 68 | 1002.1 |
| 20260902113058 | 11 | 277 | 1.6 | 6.4 | 0.00 | 0.00 | 0.00 | 68 | 1002.2 |
| 20260902111557 | 11 | 269 | 1.6 | 4.8 | 0.00 | 0.00 | 0.00 | 68 | 1002.5 |
| 20260902110056 | 11 | 253 | 1.6 | 6.4 | 0.00 | 0.00 | 0.00 | 65 | 1002.4 |
| 20260902104554 | 12 | 227 | 1.6 | 8.0 | 0.00 | 0.00 | 0.00 | 64 | 1002.2 |
| 20260902103054 | 13 | 227 | 3.2 | 9.7 | 0.00 | 0.00 | 0.00 | 62 | 1002.3 |
| 20260902101551 | 13 | 194 | 6.4 | 9.7 | 0.00 | 0.00 | 0.00 | 60 | 1002.5 |
| 20260902100059 | 13 | 169 | 3.2 | 6.4 | 0.00 | 0.00 | 0.00 | 60 | 1002.6 |
| 20260902094601 | 11 | 192 | 4.8 | 8.0 | 0.00 | 0.00 | 0.00 | 66 | 1002.7 |
| 20260902093048 | 11 | 321 | 0.0 | 0.0 | 0.00 | 0.00 | 0.00 | 65 | 1002.6 |
| 20260902091555 | 11 | 321 | 0.0 | 0.0 | 0.00 | 0.00 | 0.00 | 65 | 1002.9 |
| 20260902090046 | 10 | 317 | 0.0 | 4.8 | 0.00 | 0.00 | 0.00 | 66 | 1002.9 |
| 20260902084544 | 10 | 299 | 1.6 | 6.4 | 0.00 | 0.00 | 0.00 | 65 | 1003.1 |
| 20260902083040 | 12 | 309 | 1.6 | 8.0 | 0.00 | 0.00 | 0.00 | 61 | 1003.0 |
| 20260902081536 | 13 | 273 | 4.8 | 8.0 | 0.00 | 0.00 | 0.00 | 56 | 1003.0 |
| 20260902080035 | 15 | 315 | 3.2 | 6.4 | 0.00 | 0.00 | 0.00 | 54 | 1002.7 |